This is the latest recevied weather packets stored in our database for station/object VA3BOO. If no packets are shown the sender has not sent any weather packets the latest 10 day(s).
| Time | Temp. | Humidity | Pressure | Rain* | Wind** | Luminosity | Snow |
|---|---|---|---|---|---|---|---|
| 1778048104 | 6.67° C | 97% | 1009.2 hPa | 2.03 mm | - | 0 W/m² | - |
| 1778047804 | 6.67° C | 97% | 1009.2 hPa | 1.78 mm | - | 0 W/m² | - |
| 1778047504 | 6.67° C | 97% | 1009 hPa | 1.78 mm | - | 0 W/m² | - |
| 1778047204 | 6.67° C | 97% | 1009.4 hPa | 1.52 mm | - | 0 W/m² | - |
| 1778046904 | 6.67° C | 97% | 1009.7 hPa | 1.02 mm | - | 0 W/m² | - |
| 1778046603 | 6.67° C | 96% | 1009.9 hPa | 1.02 mm | - | 0 W/m² | - |
| 1778046304 | 6.67° C | 96% | 1010 hPa | 0.76 mm | - | 0 W/m² | - |
| 1778046004 | 6.67° C | 96% | 1009.7 hPa | 0.76 mm | - | 0 W/m² | - |
| 1778045704 | 6.67° C | 96% | 1009.8 hPa | 0.51 mm | - | 0 W/m² | - |
| 1778045404 | 7.22° C | 96% | 1009.9 hPa | 0.51 mm | - | 0 W/m² | - |
| 1778045104 | 7.22° C | 96% | 1009.9 hPa | 0.25 mm | - | 0 W/m² | - |
| 1778044803 | 7.22° C | 96% | 1009.8 hPa | 0 mm | - | 0 W/m² | - |
| 1778044504 | 7.22° C | 96% | 1010 hPa | 0 mm | - | 0 W/m² | - |
| 1778044203 | 7.22° C | 96% | 1009.9 hPa | 0 mm | - | 0 W/m² | - |
| 1778043903 | 7.22° C | 96% | 1010 hPa | 0 mm | - | 0 W/m² | - |
| 1778043603 | 7.22° C | 96% | 1010 hPa | 0 mm | - | 0 W/m² | - |
| 1778043303 | 7.22° C | 96% | 1009.8 hPa | 0 mm | - | 0 W/m² | - |
| 1778043003 | 7.22° C | 96% | 1009.7 hPa | 0.25 mm | - | 0 W/m² | - |
| 1778042704 | 7.22° C | 96% | 1010 hPa | 0.25 mm | - | 0 W/m² | - |
| 1778042403 | 7.22° C | 96% | 1010 hPa | 0.25 mm | - | 0 W/m² | - |
| 1778042103 | 7.22° C | 96% | 1010.2 hPa | 0.51 mm | - | 0 W/m² | - |
| 1778041804 | 7.22° C | 96% | 1010.2 hPa | 0.51 mm | - | 0 W/m² | - |
| 1778041503 | 7.22° C | 96% | 1009.9 hPa | 0.51 mm | - | 0 W/m² | - |
| 1778041203 | 7.22° C | 96% | 1009.9 hPa | 0.51 mm | - | 0 W/m² | - |
| 1778040903 | 7.22° C | 96% | 1009.8 hPa | 0.51 mm | - | 0 W/m² | - |
* Rain latest hour (hover to see other rain measurements)
** Current wind speed in m/s (hover to see current wind gust speed)